Location: PSU-Greenbush Astrophysical Observatory
(37.5140°N, 94.9880°W)
Time: 22:45:50
(UTC-06:00)

Altair - Pass Details

Date: 27 January 2020
Orbit: 1502 x 1682 km, 47.2° (Epoch: 17 February)

Event Time Altitude Azimuth Distance (km) Brightness Sun altitude
Rises 10:55:51 0° 279° (W) 4,908 9.8 29.6°
Reaches altitude 10° 10:59:11 10° 285° (WNW) 3,932 9.4 29.9°
Maximum altitude 11:08:56 49° 358° (N) 2,085 8.2 30.7°
Drops below altitude 10° 11:18:40 10° 71° (ENE) 3,921 9.8 31.4°
Sets 11:21:59 0° 77° (ENE) 4,892 10.2 31.6°
